Location: Hamburg
(53.5554°N, 9.9941°E)
Time: 02:38:26
(UTC+02:00)

ISS - Pass Details

Date: 12 May 2021
Orbit: 417 x 422 km, 51.6° (Epoch: 15 June)

Event Time Altitude Azimuth Distance (km) Brightness Sun altitude
Exits shadow 02:50:07 21° 258° (WSW) 1,004 -2.2 -15.5°
Maximum altitude 02:52:11 64° 182° (S) 473 -3.8 -15.4°
Drops below altitude 10° 02:55:33 10° 100° (E) 1,510 -0.8 -15.2°
Sets 02:57:40 0° 97° (E) 2,375 0.3 -15.1°
